ANIK G1

Last updated on Thu Jul 03 2025 00:02:46 GMT+0000 (Coordinated Universal Time)

1 39127U 13014A 25183.54533583 -.00000066 00000+0 00000+0 0 9997 2 39127 0.0243 283.1410 0001385 186.8880 259.8126 1.00272746 44749
UTC large
Height (km)
Speed (km/s)
/
Latitude / Longitude
Inclination (degrees)
Orbital Period (minutes)
Azimuth
Elevation
Range (km)
Doppler Factor

Next 0 passes for location: London (51.5072 / 0.1276)

Sorry there are no passes over London.